EW5761 Weather Reports


time (UTC)temp
F
wind
direction
speed
knots
gust
knots
rain 1hr
in
rain 24hr
in
rain mn
in
humidity
%
barometer
mb
20260509141338 69 91 0.0 0.0 0.00 0.04 0.01 72 1016.5
20260509140330 69 8 0.0 0.0 0.00 0.04 0.01 72 1016.6
20260509135330 70 113 0.0 0.0 0.00 0.04 0.01 69 1016.7
20260509134330 70 141 0.0 0.0 0.00 0.04 0.01 70 1016.9
20260509133326 70 149 0.0 0.0 0.00 0.04 0.01 70 1017.1
20260509132403 70 122 0.0 0.0 0.00 0.04 0.01 67 1017.2
20260509131341 70 101 0.0 0.0 0.00 0.04 0.01 69 1017.5
20260509130328 71 109 0.0 0.0 0.00 0.04 0.01 61 1017.5
20260509125406 71 151 0.0 0.0 0.00 0.04 0.01 67 1017.6
20260509124338 71 124 0.0 0.9 0.00 0.04 0.01 63 1017.7
20260509123336 71 71 0.0 0.0 0.00 0.04 0.01 61 1017.7
20260509122328 71 116 0.0 3.5 0.00 0.04 0.01 63 1017.8
20260509121405 71 117 0.0 0.0 0.00 0.04 0.01 61 1017.7
20260509120406 71 70 0.0 0.0 0.00 0.04 0.01 54 1017.6
20260509115341 71 122 0.0 0.0 0.00 0.04 0.01 56 1017.7
20260509114343 72 63 0.0 0.0 0.00 0.04 0.01 63 1017.8
20260509113340 71 104 0.0 0.0 0.00 0.04 0.01 65 1017.9
20260509112340 72 122 0.0 0.0 0.00 0.01 0.01 65 1018.5
20260509111341 71 134 0.0 0.0 0.00 0.04 0.01 64 1018.4
20260509110337 71 311 0.0 0.0 0.00 0.04 0.01 67 1018.3
20260509105354 71 304 0.0 0.9 0.00 0.04 0.01 67 1018.4
20260509104343 71 269 0.0 0.0 0.00 0.04 0.01 65 1018.5
20260509103345 71 117 0.0 0.0 0.04 0.04 0.01 67 1018.6
20260509102402 72 109 0.0 0.0 0.04 0.04 0.01 67 1018.7
20260509101337 72 87 0.0 0.0 0.04 0.04 0.01 68 1018.5
20260509100329 72 34 0.0 0.0 0.04 0.04 0.01 66 1018.5
20260509095343 71 331 0.0 0.0 0.04 0.04 0.01 70 1018.5
20260509094341 72 136 0.0 0.0 0.04 0.04 0.01 69 1018.5
20260509093332 72 354 0.0 0.0 0.00 0.00 0.00 71 1018.5
20260509092348 71 330 0.0 0.0 0.00 0.00 0.00 68 1018.4
20260509091406 70 121 0.0 0.0 0.00 0.00 0.00 73 1018.4
20260509090336 70 339 0.0 0.9 0.00 0.00 0.00 72 1018.4
20260509085341 70 39 0.0 0.0 0.00 0.00 0.00 68 1018.5
20260509084343 70 327 0.0 0.0 0.00 0.00 0.00 67 1018.4
20260509083338 71 150 0.0 0.0 0.00 0.00 0.00 63 1018.4
20260509082338 72 140 0.0 0.0 0.00 0.00 0.00 62 1018.4
20260509081328 71 84 0.0 1.7 0.00 0.00 0.00 63 1018.3
20260509080344 71 12 0.0 0.0 0.00 0.00 0.00 63 1018.3
20260509075401 72 334 0.0 0.0 0.00 0.00 0.00 61 1018.3
20260509074340 71 115 0.0 0.0 0.00 0.00 0.00 61 1018.3
20260509073328 71 340 0.0 0.0 0.00 0.00 0.00 60 1018.4
20260509072345 71 354 0.0 0.0 0.00 0.00 0.00 59 1018.5
20260509071344 72 101 0.0 0.0 0.00 0.00 0.00 62 1018.5
20260509070338 71 120 0.0 0.0 0.00 0.00 0.00 61 1018.5
20260509065338 70 108 0.0 0.0 0.00 0.00 0.00 60 1018.4
20260509064339 69 96 0.0 0.0 0.00 0.00 0.00 65 1018.4
20260509063327 68 88 0.0 0.0 0.00 0.00 0.00 61 1018.4
20260509062342 67 91 0.0 0.0 0.00 0.00 0.00 67 1018.4
20260509061332 64 139 0.0 0.0 0.00 0.00 0.00 71 1018.3
20260509060356 63 214 0.0 0.0 0.00 0.00 0.00 72 1018.3
20260509055339 62 220 0.0 0.0 0.00 0.00 0.00 74 1018.3
20260509054332 61 220 0.0 0.0 0.00 0.00 0.00 76 1018.4
20260509053407 60 219 0.0 0.0 0.00 0.00 0.00 80 1018.4
20260509052337 59 229 0.0 0.0 0.00 0.00 0.00 79 1018.4
20260509051344 58 229 0.0 0.0 0.00 0.00 0.00 80 1018.2
20260509050332 57 229 0.0 0.0 0.00 0.00 0.00 82 1018.1
20260509045338 57 229 0.0 0.0 0.00 0.00 0.00 83 1018.0
20260509044332 56 229 0.0 0.0 0.00 0.00 0.00 83 1017.9
20260509043329 55 229 0.0 0.0 0.00 0.00 0.00 83 1017.9
20260509042343 55 229 0.0 0.0 0.00 0.00 0.00 82 1018.0
20260509041344 55 229 0.0 0.0 0.00 0.00 0.00 81 1017.9
20260509040337 55 230 0.0 0.9 0.00 0.00 0.00 81 1017.9
20260509035358 55 228 0.9 0.9 0.00 0.00 0.00 81 1017.9
20260509034334 55 229 0.9 1.7 0.00 0.00 0.00 81 1018.0
20260509033351 55 228 0.9 1.7 0.00 0.00 0.00 81 1017.9
20260509032346 55 228 0.9 0.9 0.00 0.00 0.00 81 1017.7
20260509031404 55 227 0.9 1.7 0.00 0.00 0.00 81 1017.8
20260509030332 55 227 0.9 1.7 0.00 0.00 0.00 82 1017.9
20260509025342 55 226 0.9 1.7 0.00 0.00 0.00 81 1017.8
20260509024341 55 229 0.0 0.0 0.00 0.00 0.00 81 1017.7
20260509023400 55 229 0.0 0.0 0.00 0.00 0.00 82 1017.6
20260509022327 55 232 0.0 0.0 0.00 0.00 0.00 82 1017.6
20260509021346 55 235 0.0 0.0 0.00 0.00 0.00 82 1017.6
20260509020344 55 224 0.0 0.0 0.00 0.00 0.00 82 1017.6
20260509015343 55 231 0.0 0.0 0.00 0.00 0.00 82 1017.4
20260509014331 55 228 0.0 0.0 0.00 0.00 0.00 82 1017.4
20260509013349 55 226 0.0 0.0 0.00 0.00 0.00 82 1017.4
20260509012406 55 226 0.0 0.0 0.00 0.00 0.00 82 1017.4
20260509011345 56 229 0.0 0.0 0.00 0.00 0.00 82 1017.6
20260509010344 56 229 0.0 0.0 0.00 0.00 0.00 82 1017.6
20260509005336 56 229 0.0 0.0 0.00 0.00 0.00 81 1017.5
20260509004338 56 227 0.0 0.0 0.00 0.00 0.00 81 1017.8
20260509003353 56 227 0.0 0.0 0.00 0.00 0.00 81 1017.5
20260509002340 56 227 0.0 0.0 0.00 0.00 0.00 81 1017.6
20260509001335 56 228 0.0 0.0 0.00 0.00 0.00 81 1017.8
20260509000328 56 228 0.0 0.0 0.00 0.00 0.00 81 1017.8
20260508235342 56 227 0.0 0.0 0.00 0.00 0.00 81 1017.8
20260508234341 56 227 0.0 0.0 0.00 0.00 0.00 81 1017.9
20260508233330 56 229 0.0 0.0 0.00 0.00 0.00 81 1017.8
20260508232405 56 229 0.0 0.0 0.00 0.00 0.00 81 1017.9
20260508231345 57 229 0.0 0.0 0.00 0.00 0.00 80 1017.8
20260508230404 57 230 0.0 0.0 0.00 0.00 0.00 80 1017.9
20260508225332 57 230 0.0 0.0 0.00 0.00 0.00 80 1017.8
20260508224332 57 229 0.0 0.0 0.00 0.00 0.00 80 1017.9
20260508223329 57 229 0.0 0.0 0.00 0.00 0.00 80 1017.9
20260508222343 57 229 0.0 0.0 0.00 0.00 0.00 80 1017.9
20260508221345 56 229 0.0 0.0 0.00 0.00 0.00 81 1017.8
20260508220400 57 229 0.0 0.0 0.00 0.00 0.00 81 1017.9
20260508215339 57 229 0.0 0.0 0.00 0.00 0.00 80 1017.9
20260508214339 57 229 0.0 0.0 0.00 0.00 0.00 80 1017.8
20260508213339 57 229 0.0 0.0 0.00 0.00 0.00 79 1017.7
20260508212337 58 229 0.0 0.0 0.00 0.00 0.00 78 1017.7
20260508211354 58 229 0.0 0.0 0.00 0.00 0.00 78 1017.6
20260508210351 58 229 0.0 0.0 0.00 0.00 0.00 78 1017.4
20260508205407 58 229 0.0 0.0 0.00 0.00 0.00 79 1017.4
20260508204344 58 228 0.0 0.0 0.00 0.00 0.00 79 1017.3
20260508203335 58 225 0.0 0.0 0.00 0.00 0.00 79 1017.4
20260508202345 58 222 0.0 0.0 0.00 0.00 0.00 79 1017.5
20260508201340 59 221 0.0 0.0 0.00 0.00 0.00 80 1017.4
20260508200357 59 220 0.0 0.0 0.00 0.00 0.00 80 1017.4
20260508195355 59 220 0.0 0.0 0.00 0.00 0.00 79 1017.4
20260508194352 60 220 0.0 0.0 0.00 0.00 0.00 79 1017.2
20260508193352 60 220 0.0 0.0 0.00 0.00 0.00 78 1017.0
20260508192335 60 220 0.0 0.0 0.00 0.00 0.00 79 1016.9
20260508191328 60 220 0.0 0.0 0.00 0.00 0.00 79 1016.7
20260508190326 61 217 0.0 0.0 0.00 0.00 0.00 80 1016.6
20260508185404 61 215 0.0 0.0 0.00 0.00 0.00 78 1016.5
20260508184346 61 210 0.0 0.0 0.00 0.00 0.00 77 1016.5
20260508183402 61 210 0.0 0.0 0.00 0.00 0.00 78 1016.3
20260508182342 62 165 0.0 0.0 0.00 0.00 0.00 78 1016.2
20260508181339 62 140 0.0 0.0 0.00 0.00 0.00 79 1016.1
20260508180331 62 140 0.0 0.0 0.00 0.00 0.00 80 1016.0
20260508175349 63 140 0.0 0.0 0.00 0.00 0.00 78 1016.0
20260508174345 63 140 0.0 0.0 0.00 0.00 0.00 76 1015.8
20260508173343 64 140 0.0 0.0 0.00 0.00 0.00 76 1015.8
20260508172343 64 140 0.0 0.0 0.00 0.00 0.00 76 1015.6
20260508171405 64 140 0.0 0.0 0.00 0.00 0.00 75 1015.6
20260508170339 64 140 0.0 0.0 0.00 0.00 0.00 74 1015.4
20260508165357 65 316 0.0 0.0 0.00 0.00 0.00 73 1015.2
20260508164337 65 314 0.0 0.9 0.00 0.00 0.00 72 1015.2
20260508163328 66 324 0.0 0.0 0.00 0.00 0.00 71 1015.2
20260508162406 66 325 0.0 0.9 0.00 0.00 0.00 70 1015.2
20260508161345 66 296 0.0 1.7 0.00 0.00 0.00 70 1015.1
20260508160339 67 125 0.0 0.0 0.00 0.00 0.00 67 1015.1
20260508155337 67 133 0.0 0.0 0.00 0.00 0.00 68 1015.0
20260508154336 67 125 0.0 0.9 0.00 0.00 0.00 69 1015.0
20260508153332 67 320 0.0 0.0 0.00 0.00 0.00 68 1014.9
20260508152328 67 312 0.9 3.5 0.00 0.00 0.00 65 1014.8
20260508151407 67 315 0.9 3.5 0.00 0.00 0.00 64 1014.9
20260508150331 67 309 0.9 4.3 0.00 0.00 0.00 65 1014.8
20260508145340 67 308 0.9 3.5 0.00 0.00 0.00 66 1014.8
20260508144328 67 314 0.0 3.5 0.00 0.00 0.00 66 1014.9
20260508143346 67 337 0.9 1.7 0.00 0.00 0.00 65 1015.0
20260508142341 68 328 0.9 3.5 0.00 0.00 0.00 65 1015.0